Torna al catalogo

COSMOS 2054

AttivoNavigazioneGEO
NORAD 20391·PAYLOAD·🇷🇺 Russia

Lanciato Dec 27, 1989 da Baikonur Cosmodrome

Loading…

TLE

AggiornatoSource: Space-Track

Epoca: Sep 14, 2026, 12:33 UTC

1 20391U 89101A   26257.52350745  .00000065  00000-0  00000-0 0  9998
2 20391  12.1482 333.6346 0003960 231.0987 163.8703  1.00302072134765

Traccia COSMOS 2054 in tempo reale con AllMySat

Download on the App Store